Location: Newark
(35.6799°N, 139.7636°E)
Time: 02:07:39
(UTC+00:00)

Explorer 7 - Pass Details

Date: 16 December 2019
Orbit: 485 x 679 km, 50.3° (Epoch: 22 January)

Event Time Altitude Azimuth Distance (km) Brightness Sun altitude
Rises 02:17:01 0° 184° (S) 2,823 11.6 30.8°
Reaches altitude 10° 02:20:06 10° 161° (SSE) 1,968 11.1 30.9°
Maximum altitude 02:22:42 15° 125° (SE) 1,689 10.0 30.9°
Drops below altitude 10° 02:25:22 10° 91° (E) 2,038 9.8 31.0°
Sets 02:28:38 0° 68° (ENE) 2,986 10.4 31.0°
